TimeEDT,TemperatureF,Dew PointF,Humidity,Sea Level PressureIn,VisibilityMPH,Wind Direction,Wind SpeedMPH,Gust SpeedMPH,PrecipitationIn,Events,Conditions,WindDirDegrees,DateUTC
12:51 AM,64.0,55.9,75,29.87,10.0,SSE,3.5,-,N/A,,Partly Cloudy,160,2013-08-03 04:51:00
1:51 AM,63.0,57.0,81,29.86,10.0,Calm,Calm,-,N/A,,Mostly Cloudy,0,2013-08-03 05:51:00
2:51 AM,64.9,59.0,81,29.83,10.0,South,4.6,-,N/A,,Mostly Cloudy,170,2013-08-03 06:51:00
3:51 AM,66.0,59.0,78,29.81,10.0,South,6.9,-,N/A,,Mostly Cloudy,170,2013-08-03 07:51:00
4:51 AM,64.9,59.0,81,29.82,10.0,South,5.8,-,N/A,,Mostly Cloudy,190,2013-08-03 08:51:00
5:51 AM,63.0,59.0,87,29.83,10.0,South,3.5,-,N/A,,Mostly Cloudy,180,2013-08-03 09:51:00
6:51 AM,64.9,59.0,81,29.84,10.0,Variable,5.8,-,N/A,,Overcast,0,2013-08-03 10:51:00
7:51 AM,66.9,57.9,73,29.87,10.0,West,8.1,-,N/A,,Overcast,260,2013-08-03 11:51:00
8:51 AM,69.1,59.0,70,29.87,10.0,West,9.2,-,N/A,,Mostly Cloudy,280,2013-08-03 12:51:00
9:51 AM,72.0,59.0,64,29.86,10.0,West,10.4,-,N/A,,Mostly Cloudy,280,2013-08-03 13:51:00
10:51 AM,73.9,59.0,59,29.86,10.0,West,8.1,-,N/A,,Scattered Clouds,280,2013-08-03 14:51:00
11:51 AM,75.9,57.9,54,29.85,10.0,Variable,6.9,-,N/A,,Scattered Clouds,0,2013-08-03 15:51:00
12:51 PM,78.1,57.9,50,29.84,10.0,West,11.5,-,N/A,,Scattered Clouds,280,2013-08-03 16:51:00
1:51 PM,79.0,55.9,45,29.83,10.0,West,15.0,23.0,N/A,,Scattered Clouds,280,2013-08-03 17:51:00
2:51 PM,80.1,54.0,40,29.82,10.0,West,15.0,23.0,N/A,,Scattered Clouds,280,2013-08-03 18:51:00
3:51 PM,80.1,51.1,36,29.82,10.0,WNW,13.8,25.3,N/A,,Scattered Clouds,290,2013-08-03 19:51:00
4:51 PM,79.0,51.1,38,29.82,10.0,NW,19.6,26.5,N/A,,Scattered Clouds,310,2013-08-03 20:51:00
5:51 PM,77.0,51.1,40,29.83,10.0,WNW,12.7,-,N/A,,Scattered Clouds,290,2013-08-03 21:51:00
6:51 PM,75.0,48.0,38,29.84,10.0,WNW,15.0,21.9,N/A,,Scattered Clouds,300,2013-08-03 22:51:00
7:51 PM,72.0,48.9,44,29.85,10.0,WNW,10.4,-,N/A,,Scattered Clouds,300,2013-08-03 23:51:00
8:51 PM,71.1,48.9,45,29.86,10.0,WNW,15.0,20.7,N/A,,Partly Cloudy,300,2013-08-04 00:51:00
9:51 PM,70.0,48.0,46,29.88,10.0,WNW,10.4,-,N/A,,Partly Cloudy,300,2013-08-04 01:51:00
10:51 PM,66.0,50.0,56,29.88,10.0,WNW,9.2,-,N/A,,Partly Cloudy,290,2013-08-04 02:51:00
11:51 PM,64.0,51.1,63,29.87,10.0,Calm,Calm,-,N/A,,Partly Cloudy,0,2013-08-04 03:51:00